Tracking 29892 objects as of 21-Nov-2024
HD Live streaming from Space Station
objects crossing your sky now

CZ-2C DEB

Track CZ-2C DEB now!
10-day predictions


NORAD ID: 28483
Int'l Code: 2004-046E
Perigee: 633.9 km
Apogee: 750.5 km
Inclination: 98.2 °
Period: 98.5 minutes
Semi major axis: 7063 km
RCS: 0.098 m2 (small)
Launch date: November 18, 2004
Source: People's Republic of China (PRC)
Launch site: Xichang Space Center, China (XSC)

Note: This is SATELLITE DEBRIS
Your satellite tracking list
Your tracking list is empty




NASA's NSSDC Master Catalog

Two Line Element Set (TLE):
1 28483U 04046E   24325.79834125  .00018821  00000-0  35352-2 0  9994
2 28483  98.2477  80.2245 0082598 249.8164 272.0310 14.62516679 52392
Source of the keplerian elements: AFSPC